Hebron, KY

7:46 AM EST on February 06, 2016 (GMT -0500)
Cincinnati-Northern KY International

Weather History for KCVG - December, 2014

Change the Weather History Date:

Wednesday, December 31, 2014

  Actual Average Record
Temperature  
Mean Temperature 21 °F 31 °F  
Max Temperature 28 °F 39 °F 72 °F (1875)
Min Temperature 13 °F 24 °F -2 °F (1976)
Degree Days  
Heating Degree Days 44 34  
Month to date heating degree days 842 959  
Since 1 July heating degree days 1980 1919  
Cooling Degree Days 0 0  
Month to date cooling degree days 0 0  
Year to date cooling degree days 1077 1121  
Moisture  
Dew Point 6 °F    
Average Humidity 55    
Maximum Humidity 76    
Minimum Humidity 33    
Precipitation  
Precipitation 0.00 in 0.10 in 2.50 in (1871)
Month to date precipitation 3.60 3.37  
Year to date precipitation 42.29 42.52  
Snow  
Snow 0.00 in 0.20 in 5.60 in (1960)
Month to date snowfall 0.1 4.8  
Since 1 July snowfall 5.2 5.6  
Snow Depth 0.00 in    
Sea Level Pressure  
Sea Level Pressure 30.50 in    
Wind  
Wind Speed 7 mph (West)    
Max Wind Speed 14 mph    
Max Gust Speed 18 mph    
Visibility 10 miles    
Events      
T = Trace of Precipitation, MM = Missing Value Source: NWS Daily Summary

Daily Weather History Graph

Daily Weather History Graph

Search for Another Location

Airport or City:

Trip Planner

Search our weather history database for the weather conditions in past years. The results will help you decide how hot, cold, wet, or windy it might be!

Date:

Astronomy

Dec. 31, 2014 Rise Set
Actual Time 7:57 AM EST 5:26 PM EST
Civil Twilight 7:27 AM EST 5:55 PM EST
Nautical Twilight 6:54 AM EST 6:29 PM EST
Astronomical Twilight 6:21 AM EST 7:01 PM EST
Moon 2:15 PM EST (12/31) 3:24 AM EST (12/31)
Length of Visible Light 10h 28m
Length of Day
9h 28m
Waxing Gibbous, 80% of the Moon is Illuminated
Dec 31
Waxing Gibbous
Jan 4
Full
Jan 13
Last Quarter
Jan 20
New
Jan 26
First Quarter

Hourly Weather History & Observations

Time (EST) Temp. Windchill Dew Point Humidity Pressure Visibility Wind Dir Wind Speed Gust Speed Precip Events Conditions
12:52 AM 21.0 °F 11.4 °F 14.0 °F 74% 30.57 in 10.0 mi WNW 8.1 mph - N/A   Partly Cloudy
1:52 AM 19.9 °F 9.3 °F 12.0 °F 71% 30.58 in 10.0 mi WNW 9.2 mph - N/A   Mostly Cloudy
2:52 AM 19.0 °F 11.1 °F 10.9 °F 71% 30.57 in 10.0 mi NNW 5.8 mph - N/A   Clear
3:52 AM 18.0 °F 7.7 °F 8.1 °F 65% 30.60 in 10.0 mi NW 8.1 mph - N/A   Partly Cloudy
4:52 AM 17.1 °F 8.7 °F 5.0 °F 59% 30.56 in 10.0 mi NNW 5.8 mph - N/A   Clear
5:52 AM 17.1 °F 7.6 °F 6.1 °F 62% 30.57 in 10.0 mi Variable 6.9 mph - N/A   Clear
6:52 AM 14.0 °F 8.2 °F 7.0 °F 74% 30.58 in 10.0 mi WNW 3.5 mph - N/A   Clear
7:52 AM 12.9 °F 5.2 °F 6.1 °F 74% 30.58 in 10.0 mi West 4.6 mph - N/A   Scattered Clouds
8:52 AM 15.1 °F 6.4 °F 6.1 °F 68% 30.58 in 10.0 mi West 5.8 mph - N/A   Partly Cloudy
9:52 AM 17.1 °F 8.7 °F 5.0 °F 59% 30.58 in 10.0 mi West 5.8 mph - N/A   Scattered Clouds
10:52 AM 19.9 °F 12.1 °F 3.9 °F 50% 30.58 in 10.0 mi West 5.8 mph - N/A   Scattered Clouds
11:52 AM 21.9 °F 13.4 °F 3.9 °F 46% 30.56 in 10.0 mi West 6.9 mph - N/A   Scattered Clouds
12:52 PM 24.1 °F 14.4 °F 3.9 °F 42% 30.52 in 10.0 mi West 9.2 mph - N/A   Scattered Clouds
1:52 PM 25.0 °F 18.1 °F 3.0 °F 39% 30.48 in 10.0 mi SW 5.8 mph - N/A   Scattered Clouds
2:52 PM 27.0 °F 18.7 °F 3.0 °F 36% 30.46 in 10.0 mi WSW 8.1 mph - N/A   Partly Cloudy
3:52 PM 27.0 °F 17.3 °F 3.0 °F 36% 30.45 in 10.0 mi SW 10.4 mph - N/A   Clear
4:52 PM 27.0 °F 18.7 °F 1.9 °F 34% 30.43 in 10.0 mi SW 8.1 mph - N/A   Clear
5:52 PM 24.1 °F 15.2 °F 3.0 °F 40% 30.42 in 10.0 mi SW 8.1 mph - N/A   Clear
6:52 PM 23.0 °F 15.8 °F 3.9 °F 44% 30.41 in 10.0 mi SW 5.8 mph - N/A   Clear
7:52 PM 21.9 °F 14.5 °F 5.0 °F 48% 30.40 in 10.0 mi SW 5.8 mph - N/A   Clear
8:52 PM 21.9 °F 13.4 °F 5.0 °F 48% 30.39 in 10.0 mi SW 6.9 mph - N/A   Clear
9:52 PM 23.0 °F 11.7 °F 3.0 °F 42% 30.37 in 10.0 mi SW 11.5 mph - N/A   Partly Cloudy
10:52 PM 23.0 °F 11.7 °F 3.0 °F 42% 30.36 in 10.0 mi SW 11.5 mph 18.4 mph N/A   Partly Cloudy
11:52 PM 21.9 °F 11.0 °F 3.9 °F 46% 30.35 in 10.0 mi WSW 10.4 mph 18.4 mph N/A   Partly Cloudy